Location: Keppel Henge
(44.7900°N, 80.9447°W)
Time: 04:36:14
(UTC-05:00)

Vanguard 1 Rocket - Pass Details

Date: 01 November 2017
Orbit: 655 x 4222 km, 34.3° (Epoch: 22 November)

Event Time Altitude Azimuth Distance (km) Brightness Sun altitude
Rises 02:04:40 0° 200° (SSW) 8,328 - -57.4°
Reaches altitude 10° 02:13:10 10° 187° (S) 6,935 - -56.7°
Maximum altitude 02:26:43 21° 148° (SSE) 5,021 - -55.4°
Exits shadow 02:31:39 18° 127° (SE) 4,736 10.9 -54.8°
Drops below altitude 10° 02:36:24 10° 107° (ESE) 4,856 11.2 -54.3°
Sets 02:40:42 0° 92° (E) 5,324 11.6 -53.8°
